EW2886 Weather Reports


time (UTC)temp
F
wind
direction
speed
knots
gust
knots
rain 1hr
in
rain 24hr
in
rain mn
in
humidity
%
barometer
mb
20200803152336 79 135 0.0 0.0 0.00 0.08 0.01 75 1015.8
20200803151824 79 213 0.0 0.9 0.00 0.08 0.01 75 1015.9
20200803151334 78 247 0.0 0.9 0.00 0.08 0.01 77 1015.9
20200803150823 78 93 0.0 0.0 0.00 0.08 0.01 77 1015.9
20200803150324 77 317 0.0 0.0 0.00 0.08 0.01 79 1016.0
20200803145830 77 82 0.0 0.0 0.00 0.08 0.01 81 1016.0
20200803145336 76 28 0.0 0.0 0.00 0.08 0.01 82 1015.9
20200803144842 76 274 0.0 0.0 0.00 0.08 0.01 81 1015.9
20200803144328 75 217 0.0 0.0 0.00 0.08 0.01 85 1016.0
20200803143834 75 96 0.0 0.0 0.00 0.08 0.01 85 1016.0
20200803143339 74 319 0.0 0.0 0.00 0.08 0.01 88 1016.0
20200803142826 74 238 0.0 0.0 0.00 0.08 0.01 90 1015.9
20200803142337 73 308 0.0 0.0 0.00 0.08 0.01 92 1015.9
20200803141843 72 142 0.0 0.0 0.00 0.08 0.01 93 1015.9
20200803141329 72 142 0.0 0.0 0.00 0.08 0.01 96 1015.9
20200803140837 71 141 0.0 0.0 0.00 0.08 0.01 97 1015.8
20200803140336 71 141 0.0 0.0 0.00 0.08 0.01 99 1015.9
20200803135824 71 246 0.0 0.0 0.00 0.10 0.01 99 1015.9
20200803135331 70 246 0.0 0.0 0.01 0.10 0.01 100 1015.9
20200803134838 70 246 0.0 0.0 0.01 0.10 0.01 100 1015.9
20200803134342 70 246 0.0 0.0 0.01 0.10 0.01 100 1016.0
20200803133827 69 246 0.0 0.0 0.01 0.10 0.01 100 1015.9
20200803133337 69 246 0.0 0.0 0.01 0.10 0.01 100 1016.0
20200803132826 69 246 0.0 0.0 0.01 0.10 0.01 100 1016.0
20200803132333 69 246 0.0 0.0 0.01 0.10 0.01 100 1016.0
20200803131839 69 246 0.0 0.0 0.01 0.10 0.01 100 1016.0
20200803131327 69 246 0.0 0.0 0.01 0.10 0.01 100 1016.0
20200803130835 68 246 0.0 0.0 0.01 0.10 0.01 100 1015.9
20200803130336 68 246 0.0 0.0 0.01 0.10 0.01 100 1015.9
20200803125823 68 246 0.0 0.0 0.01 0.10 0.01 100 1015.9
20200803125330 67 246 0.0 0.0 0.00 0.09 0.00 100 1016.0
20200803124837 67 246 0.0 0.0 0.00 0.09 0.00 100 1016.0
20200803124328 66 246 0.0 0.0 0.00 0.09 0.00 99 1016.0
20200803123834 66 246 0.0 0.0 0.00 0.09 0.00 100 1016.1
20200803123340 66 246 0.0 0.0 0.00 0.09 0.00 100 1016.0
20200803122827 66 246 0.0 0.0 0.00 0.09 0.00 99 1016.0
20200803122333 66 246 0.0 0.0 0.00 0.09 0.00 100 1016.0
20200803121840 65 246 0.0 0.0 0.00 0.09 0.00 99 1016.0
20200803121326 65 246 0.0 0.0 0.00 0.09 0.00 99 1016.0
20200803120833 65 246 0.0 0.0 0.00 0.09 0.00 99 1015.9
20200803120332 65 246 0.0 0.0 0.00 0.09 0.00 99 1015.8
20200803115824 65 246 0.0 0.0 0.00 0.09 0.00 99 1015.9
20200803115328 65 246 0.0 0.0 0.00 0.09 0.00 99 1015.8
20200803114835 65 246 0.0 0.0 0.00 0.09 0.00 99 1015.8
20200803114342 65 246 0.0 0.0 0.00 0.09 0.00 99 1015.8
20200803113828 64 246 0.0 0.0 0.00 0.09 0.00 99 1015.8
20200803113335 64 246 0.0 0.0 0.00 0.09 0.00 99 1015.8
20200803112328 64 246 0.0 0.0 0.00 0.09 0.00 99 1015.6
20200803111835 64 246 0.0 0.0 0.00 0.09 0.00 99 1015.6
20200803111341 64 246 0.0 0.0 0.00 0.09 0.00 99 1015.5
20200803110833 63 246 0.0 0.0 0.00 0.09 0.00 99 1015.4
20200803110334 63 246 0.0 0.0 0.00 0.09 0.00 99 1015.5
20200803105841 63 246 0.0 0.0 0.00 0.09 0.00 99 1015.4
20200803105327 63 246 0.0 0.0 0.00 0.09 0.00 99 1015.4
20200803104834 63 246 0.0 0.0 0.00 0.09 0.00 99 1015.4
20200803104339 63 246 0.0 0.0 0.00 0.09 0.00 99 1015.3
20200803103825 63 246 0.0 0.0 0.00 0.09 0.00 99 1015.4
20200803103330 63 246 0.0 0.0 0.00 0.09 0.00 99 1015.3
20200803102836 63 246 0.0 0.0 0.00 0.09 0.00 99 1015.3
20200803102342 63 246 0.0 0.0 0.00 0.09 0.00 99 1015.2
20200803101832 63 246 0.0 0.0 0.00 0.09 0.00 99 1015.3
20200803101337 63 246 0.0 0.0 0.00 0.09 0.00 99 1015.2
20200803100825 63 246 0.0 0.0 0.00 0.09 0.00 98 1015.1
20200803100325 64 246 0.0 0.0 0.00 0.09 0.00 99 1015.1
20200803095831 64 246 0.0 0.0 0.00 0.12 0.00 99 1015.2
20200803095338 64 246 0.0 0.0 0.00 0.12 0.00 99 1015.1
20200803094824 64 246 0.0 0.0 0.00 0.12 0.00 99 1015.2
20200803094331 64 246 0.0 0.0 0.00 0.12 0.00 99 1015.0
20200803093836 64 246 0.0 0.0 0.00 0.12 0.00 99 1015.0
20200803093324 64 246 0.0 0.0 0.00 0.12 0.00 99 1015.0
20200803092834 64 246 0.0 0.0 0.00 0.12 0.00 99 1015.0
20200803092340 64 246 0.0 0.0 0.00 0.12 0.00 99 1014.9
20200803091826 64 246 0.0 0.0 0.00 0.12 0.00 99 1014.9
20200803091332 64 246 0.0 0.0 0.00 0.12 0.00 99 1014.8
20200803090839 64 246 0.0 0.0 0.00 0.12 0.00 99 1014.8
20200803090339 64 246 0.0 0.0 0.00 0.12 0.00 99 1014.6
20200803085824 64 246 0.0 0.0 0.00 0.12 0.00 99 1014.7
20200803085330 64 246 0.0 0.0 0.00 0.12 0.00 99 1014.7
20200803084835 64 246 0.0 0.0 0.00 0.12 0.00 99 1014.7
20200803084341 64 246 0.0 0.0 0.00 0.12 0.00 99 1014.8
20200803083831 64 246 0.0 0.0 0.00 0.12 0.00 99 1014.9
20200803083337 64 246 0.0 0.0 0.00 0.12 0.00 99 1014.9
20200803082823 64 246 0.0 0.0 0.00 0.12 0.00 98 1015.0
20200803082330 64 246 0.0 0.0 0.00 0.12 0.00 98 1015.0
20200803081836 64 246 0.0 0.0 0.00 0.12 0.00 98 1015.0
20200803081322 64 246 0.0 0.0 0.00 0.12 0.00 99 1014.9
20200803080830 64 246 0.0 0.0 0.00 0.12 0.00 99 1015.0
20200803080329 64 246 0.0 0.0 0.00 0.12 0.00 99 1015.0
20200803075836 64 246 0.0 0.0 0.00 0.12 0.00 99 1015.0
20200803075342 63 246 0.0 0.0 0.00 0.12 0.00 98 1015.0
20200803074832 63 246 0.0 0.0 0.00 0.12 0.00 98 1015.2
20200803074335 63 246 0.0 0.0 0.00 0.12 0.00 98 1015.1
20200803073822 63 246 0.0 0.0 0.00 0.12 0.00 98 1015.2
20200803073328 63 246 0.0 0.0 0.00 0.12 0.00 98 1015.1
20200803072835 63 246 0.0 0.0 0.00 0.12 0.00 98 1015.1
20200803072341 63 246 0.0 0.0 0.00 0.12 0.00 98 1015.2
20200803071827 62 246 0.0 0.0 0.00 0.12 0.00 98 1015.2
20200803071333 62 246 0.0 0.0 0.00 0.12 0.00 98 1015.2
20200803070839 62 246 0.0 0.0 0.00 0.12 0.00 98 1015.2
20200803070339 62 246 0.0 0.0 0.00 0.12 0.00 98 1015.2
20200803065830 62 246 0.0 0.0 0.00 0.12 0.00 98 1015.1
20200803065335 62 246 0.0 0.0 0.00 0.12 0.00 98 1015.2
20200803064822 62 246 0.0 0.0 0.00 0.12 0.00 98 1015.1
20200803064328 62 246 0.0 0.0 0.00 0.12 0.00 98 1015.0
20200803063834 62 246 0.0 0.0 0.00 0.12 0.00 98 1015.0
20200803063342 63 246 0.0 0.0 0.00 0.12 0.00 98 1015.0
20200803062829 63 246 0.0 0.0 0.00 0.12 0.00 98 1015.2
20200803062335 63 246 0.0 0.0 0.00 0.12 0.00 98 1015.2
20200803061841 63 246 0.0 0.0 0.00 0.12 0.00 97 1015.2
20200803061328 63 246 0.0 0.0 0.00 0.12 0.00 98 1015.2
20200803060837 63 246 0.0 0.0 0.00 0.12 0.00 97 1015.2
20200803060337 63 246 0.0 0.0 0.00 0.12 0.00 97 1015.2
20200803055824 63 246 0.0 0.0 0.00 0.12 0.00 97 1015.2
20200803055329 63 246 0.0 0.0 0.00 0.12 0.00 97 1015.3
20200803054834 63 246 0.0 0.0 0.00 0.12 0.00 97 1015.3
20200803054340 63 246 0.0 0.0 0.00 0.12 0.00 97 1015.2
20200803053827 63 246 0.0 0.0 0.00 0.12 0.00 97 1015.3
20200803053335 63 246 0.0 0.0 0.00 0.12 0.00 97 1015.3
20200803052840 63 246 0.0 0.0 0.00 0.12 0.00 97 1015.3
20200803052327 63 246 0.0 0.0 0.00 0.12 0.00 97 1015.2
20200803051835 63 246 0.0 0.0 0.00 0.12 0.00 97 1015.2
20200803051340 63 246 0.0 0.0 0.00 0.12 0.00 97 1015.3
20200803050827 63 246 0.0 0.0 0.00 0.12 0.00 97 1015.3
20200803050325 63 246 0.0 0.0 0.00 0.12 0.00 97 1015.3
20200803045830 63 246 0.0 0.0 0.00 0.12 0.00 97 1015.3
20200803045337 63 246 0.0 0.0 0.00 0.12 0.00 97 1015.3
20200803044842 63 246 0.0 0.0 0.00 0.12 0.00 97 1015.2
20200803044327 63 246 0.0 0.0 0.00 0.12 0.00 97 1015.2
20200803043834 63 246 0.0 0.0 0.00 0.12 0.00 97 1015.2
20200803043339 63 246 0.0 0.0 0.00 0.12 0.00 97 1015.2
20200803042830 63 246 0.0 0.0 0.00 0.12 0.00 97 1015.2
20200803042336 63 246 0.0 0.0 0.00 0.12 0.00 96 1015.1
20200803041823 63 246 0.0 0.0 0.00 0.12 0.00 96 1015.1
20200803041329 63 246 0.0 0.0 0.00 0.12 0.00 96 1015.0
20200803040837 63 246 0.0 0.0 0.00 0.12 0.00 96 1015.0
20200803040335 63 246 0.0 0.0 0.00 0.12 0.00 96 1014.9
20200803035841 63 246 0.0 0.0 0.00 0.12 0.12 96 1015.0
20200803035327 63 246 0.0 0.0 0.00 0.12 0.12 96 1014.9
20200803034832 63 246 0.0 0.0 0.00 0.12 0.12 96 1014.9
20200803034338 63 246 0.0 0.0 0.00 0.12 0.12 95 1014.9
20200803033828 63 246 0.0 0.0 0.00 0.12 0.12 95 1015.0
20200803033333 64 246 0.0 0.0 0.00 0.12 0.12 95 1015.0
20200803032837 64 246 0.0 0.0 0.00 0.12 0.12 95 1014.9
20200803032324 64 246 0.0 0.0 0.00 0.12 0.12 96 1015.0
20200803031830 64 246 0.0 0.0 0.00 0.12 0.12 95 1015.0
20200803031335 64 246 0.0 0.0 0.00 0.12 0.12 95 1015.0
20200803030822 64 246 0.0 0.0 0.00 0.12 0.12 95 1014.9
20200803030342 64 246 0.0 0.0 0.00 0.12 0.12 95 1014.8
20200803025828 64 246 0.0 0.0 0.00 0.13 0.12 95 1014.9
20200803025332 65 246 0.0 0.0 0.00 0.13 0.12 95 1014.9
20200803024822 65 246 0.0 0.0 0.00 0.13 0.12 95 1014.9
20200803024328 65 246 0.0 0.0 0.00 0.13 0.12 95 1014.9
20200803023833 65 246 0.0 0.0 0.00 0.13 0.12 95 1014.9
20200803023339 65 246 0.0 0.0 0.00 0.13 0.12 95 1015.0
20200803022826 65 246 0.0 0.0 0.00 0.13 0.12 95 1014.9
20200803022332 65 246 0.0 0.0 0.00 0.13 0.12 95 1014.9
20200803021839 65 246 0.0 0.0 0.00 0.13 0.12 95 1014.8
20200803021325 66 246 0.0 0.0 0.00 0.13 0.12 95 1014.8
20200803020832 66 246 0.0 0.0 0.00 0.13 0.12 95 1014.8
20200803020331 66 246 0.0 0.0 0.00 0.13 0.12 95 1014.8
20200803015838 66 246 0.0 0.0 0.00 0.60 0.12 95 1014.8
20200803015327 66 246 0.0 0.0 0.00 0.60 0.12 95 1014.7
20200803014833 66 246 0.0 0.0 0.00 0.60 0.12 96 1014.7
20200803014338 67 246 0.0 0.0 0.00 0.60 0.12 96 1014.5
20200803013825 67 246 0.0 0.0 0.00 0.60 0.12 96 1014.4
20200803013329 67 246 0.0 0.0 0.00 0.60 0.12 96 1014.4
20200803012836 67 246 0.0 0.0 0.00 0.60 0.12 96 1014.3
20200803012341 67 246 0.0 0.0 0.00 0.60 0.12 96 1014.3
20200803011827 67 246 0.0 0.0 0.00 0.60 0.12 96 1014.3
20200803011333 67 246 0.0 0.0 0.00 0.60 0.12 96 1014.2
20200803010824 67 246 0.0 0.0 0.00 0.60 0.12 96 1014.1
20200803010324 67 246 0.0 0.0 0.00 0.60 0.12 96 1014.2
20200803005829 67 246 0.0 0.0 0.00 0.95 0.12 96 1014.1
20200803005336 67 246 0.0 0.0 0.00 0.95 0.12 96 1014.0
20200803004822 67 246 0.0 0.0 0.00 0.95 0.12 96 1014.0
20200803004329 67 246 0.0 0.0 0.00 0.95 0.12 96 1014.0
20200803003835 67 246 0.0 0.0 0.00 0.95 0.12 96 1013.9
20200803003341 67 261 0.0 0.0 0.00 0.95 0.12 95 1013.8
20200803002827 67 261 0.0 0.0 0.00 0.95 0.12 95 1013.7
20200803002334 67 261 0.0 0.0 0.00 0.95 0.12 95 1013.6
20200803001824 67 261 0.0 0.0 0.00 0.95 0.12 95 1013.6
20200803001330 67 259 0.0 0.0 0.00 0.95 0.12 95 1013.4
20200803000838 67 257 0.0 0.0 0.00 0.95 0.12 95 1013.4
20200803000336 67 290 0.0 0.0 0.00 0.95 0.12 95 1013.3
20200802235840 67 269 0.0 0.0 0.00 1.01 0.12 95 1013.2
20200802235325 67 269 0.0 0.0 0.00 1.01 0.12 95 1013.2
20200802234831 67 270 0.0 0.0 0.00 1.01 0.12 95 1013.1
20200802234336 67 252 0.0 0.0 0.00 1.01 0.12 95 1013.0
20200802233842 67 306 0.0 0.0 0.00 1.01 0.12 95 1013.0
20200802233329 68 228 0.0 0.0 0.00 1.01 0.12 95 1013.0
20200802232834 68 228 0.0 0.0 0.00 1.01 0.12 95 1012.9
20200802232325 68 228 0.0 0.0 0.00 1.01 0.12 95 1012.8
20200802231831 68 288 0.0 0.0 0.00 1.01 0.12 95 1012.7
20200802231338 68 287 0.0 0.0 0.00 1.01 0.12 96 1012.6
20200802230824 68 287 0.0 0.0 0.00 1.01 0.12 96 1012.4
20200802230343 68 287 0.0 0.0 0.00 1.01 0.12 96 1012.3
20200802225828 68 155 0.0 0.0 0.00 1.01 0.12 96 1012.4
20200802225334 68 218 0.0 0.0 0.00 1.01 0.12 96 1012.4
20200802224841 68 250 0.0 0.0 0.00 1.01 0.12 95 1012.4
20200802224326 68 215 0.0 0.9 0.00 1.01 0.12 96 1012.4
20200802223832 68 202 0.0 0.9 0.00 1.01 0.12 96 1012.3
20200802223323 68 301 0.0 0.0 0.00 1.01 0.12 96 1012.2
20200802222827 68 254 0.0 0.0 0.01 1.01 0.12 96 1012.2
20200802222333 68 313 0.0 0.0 0.01 1.01 0.12 96 1012.1
20200802221839 68 311 0.0 0.0 0.01 1.01 0.12 97 1012.2
20200802221326 68 292 0.0 0.0 0.01 1.01 0.12 96 1012.1
20200802220832 67 246 0.0 0.0 0.01 1.01 0.12 96 1012.1
20200802220332 67 346 0.0 0.0 0.01 1.01 0.12 96 1012.1
20200802215839 67 227 0.0 0.0 0.01 1.01 0.12 96 1012.1
20200802215326 67 236 0.0 0.0 0.01 1.01 0.12 96 1012.1
20200802214831 67 293 0.0 0.0 0.01 1.01 0.12 96 1012.0
20200802214342 67 196 0.0 0.0 0.01 1.01 0.12 96 1012.0
20200802213828 67 157 0.0 0.0 0.02 1.01 0.12 95 1011.9
20200802213335 67 282 0.0 0.0 0.02 1.01 0.12 95 1011.8
20200802212841 68 258 0.0 0.0 0.01 1.00 0.11 95 1011.8
20200802212325 68 277 0.0 0.0 0.01 1.00 0.11 96 1011.7
20200802211832 68 284 0.0 0.0 0.01 1.00 0.11 96 1011.7
20200802211338 68 283 0.0 0.0 0.02 1.00 0.11 95 1011.7
20200802210823 68 238 0.0 0.0 0.02 1.00 0.11 95 1011.5
20200802210342 68 279 0.0 0.0 0.02 1.00 0.11 95 1011.3
20200802205829 68 195 0.0 0.0 0.02 1.00 0.11 95 1011.3
20200802205339 68 309 0.0 0.0 0.03 1.00 0.11 95 1011.3
20200802204825 68 246 0.0 0.9 0.03 1.00 0.11 95 1011.2
20200802204332 68 225 0.0 0.9 0.03 1.00 0.11 95 1011.1
20200802203839 68 204 0.0 0.0 0.02 0.99 0.10 94 1011.0
20200802203325 68 200 0.0 0.0 0.02 0.99 0.10 94 1011.0
20200802202832 68 290 0.0 4.3 0.02 0.99 0.10 94 1010.9
20200802202336 68 198 0.0 4.3 0.02 0.99 0.10 94 1010.8
20200802201825 68 269 0.0 0.0 0.02 0.99 0.10 94 1010.7
20200802201333 69 287 0.0 0.0 0.01 0.98 0.09 94 1010.7
20200802200826 69 234 0.0 0.9 0.01 0.98 0.09 93 1010.6
20200802200325 69 268 0.0 0.9 0.01 0.98 0.09 93 1010.6
20200802195832 69 287 0.0 5.2 0.01 1.02 0.09 93 1010.6
20200802195341 69 198 0.0 5.2 0.00 1.01 0.08 93 1010.5
20200802194828 69 322 0.0 0.0 0.00 1.01 0.08 93 1010.5
20200802194335 69 215 0.0 0.9 0.00 1.01 0.08 92 1010.4
20200802193842 69 266 0.0 0.9 0.00 1.01 0.08 92 1010.3
20200802193330 69 265 0.0 0.9 0.00 1.01 0.08 92 1010.2
20200802192838 70 278 0.0 0.9 0.00 1.01 0.08 92 1010.2
20200802192325 70 307 0.0 0.9 0.00 1.01 0.08 91 1010.0
20200802191837 70 293 0.0 3.5 0.00 1.01 0.08 91 1010.0
20200802191325 70 327 0.0 3.5 0.00 1.01 0.08 90 1010.0
20200802190833 70 238 0.0 2.6 0.00 1.01 0.08 89 1009.9
20200802190332 70 202 0.0 0.0 0.00 1.01 0.08 89 1009.9
20200802185838 71 109 0.0 1.7 0.00 1.01 0.08 87 1009.8
20200802185325 71 184 0.0 2.6 0.00 1.01 0.08 87 1009.8
20200802184833 71 311 0.0 2.6 0.00 1.01 0.08 87 1009.7
20200802184340 71 259 0.0 2.6 0.00 1.01 0.08 86 1009.6
20200802183828 72 209 0.0 1.7 0.00 1.01 0.08 86 1009.5
20200802183336 72 151 0.0 0.0 0.00 1.01 0.08 87 1009.5
20200802182828 72 219 0.0 0.0 0.00 1.01 0.08 87 1009.4
20200802182335 72 281 0.0 0.0 0.00 1.01 0.08 86 1009.2
20200802181823 72 249 0.0 3.5 0.00 1.01 0.08 85 1009.3
20200802181330 72 262 0.0 1.7 0.00 1.01 0.08 85 1009.2
20200802180837 72 134 0.0 1.7 0.00 1.01 0.08 87 1009.1
20200802180334 72 214 0.0 3.5 0.00 1.01 0.08 88 1009.1
20200802175839 72 254 0.0 6.1 0.00 1.01 0.08 87 1008.9
20200802175325 72 209 0.9 6.1 0.00 1.01 0.08 86 1009.0
20200802174830 72 350 0.0 1.7 0.00 1.01 0.08 87 1009.0
20200802174337 72 292 0.0 8.7 0.00 1.01 0.08 87 1008.7
20200802173826 73 355 0.0 8.7 0.00 1.01 0.08 88 1008.7
20200802173331 73 298 0.0 4.3 0.00 1.01 0.08 89 1008.6
20200802172838 73 213 0.0 2.6 0.00 1.01 0.08 91 1008.6
20200802172324 72 221 0.0 2.6 0.01 1.01 0.08 93 1008.5
20200802171829 72 240 0.0 0.0 0.01 1.01 0.08 94 1008.5
20200802171335 71 286 0.0 0.9 0.01 1.01 0.08 94 1008.5
20200802170840 71 211 0.0 3.5 0.01 1.01 0.08 93 1008.4
20200802170339 71 232 0.0 3.5 0.01 1.01 0.08 94 1008.3
20200802165826 71 235 0.0 0.0 0.01 1.01 0.08 94 1008.2
20200802165331 72 248 0.0 0.0 0.01 1.01 0.08 95 1008.1
20200802164841 72 42 0.0 0.0 0.02 1.01 0.08 95 1008.2
20200802164327 72 205 0.0 0.0 0.02 1.01 0.08 95 1008.1
20200802163832 71 229 0.0 0.9 0.02 1.01 0.08 95 1008.2
20200802163338 71 229 0.0 0.9 0.02 1.01 0.08 95 1008.2
20200802162823 72 220 0.0 0.0 0.02 1.01 0.08 95 1008.1
20200802162330 72 286 0.0 0.0 0.01 1.00 0.07 95 1008.1
20200802161836 72 225 0.0 0.0 0.01 1.00 0.07 95 1008.0
20200802161342 72 329 0.0 0.0 0.01 1.00 0.07 95 1007.9
20200802160828 72 267 0.0 0.0 0.02 1.00 0.07 95 1007.9
20200802160326 72 206 0.0 0.0 0.02 1.00 0.07 95 1007.9
20200802155838 72 248 0.0 0.0 0.02 1.01 0.07 94 1007.8
20200802155323 72 214 0.0 0.0 0.02 1.01 0.07 94 1007.7
20200802154829 72 194 0.0 0.0 0.01 1.00 0.06 94 1007.6
20200802154334 72 287 0.0 1.7 0.01 1.00 0.06 95 1007.6
20200802153840 73 204 0.0 1.7 0.01 1.00 0.06 95 1007.5
20200802153326 73 325 0.0 0.0 0.01 1.00 0.06 96 1007.4
20200802152831 73 298 0.0 0.0 0.01 1.00 0.06 96 1007.4